Weather History for Bloomington, IN

Change the Weather History Date:

Monday, December 23, 2002

  Actual Average Record
Temperature  
Mean Temperature 32 °F 30 °F  
Max Temperature 35 °F 39 °F 57 °F (1996)
Min Temperature 28 °F 22 °F -6 °F (2000)
Degree Days  
Heating Degree Days 34 35  
Month to date heating degree days 736  
Since 1 July heating degree days 1792  
Cooling Degree Days 0 0  
Month to date cooling degree days 0  
Year to date cooling degree days 927  
Moisture  
Dew Point 22 °F    
Average Humidity 68    
Maximum Humidity 82    
Minimum Humidity 54    
Precipitation  
Precipitation 0.00 in 0.14 in 0.93 in (2008)
Month to date precipitation 2.45  
Year to date precipitation 46.46  
Sea Level Pressure  
Sea Level Pressure 30.18 in    
Wind  
Wind Speed 8 mph (West)    
Max Wind Speed 13 mph    
Max Gust Speed -    
Visibility 10 miles    
Events      
T = Trace of Precipitation, MM = Missing Value Source: NWS Daily Summary

Daily Weather History Graph

Daily Weather History Graph

Search for Another Location

Airport:

Trip Planner

Search our weather history database for the weather conditions in past years. The results will help you decide how hot, cold, wet, or windy it might be!

Date:

Astronomy

Dec. 23, 2002 Rise Set
Actual Time 8:03 AM EST 5:28 PM EST
Civil Twilight 7:33 AM EST 5:58 PM EST
Nautical Twilight 6:59 AM EST 6:31 PM EST
Astronomical Twilight 6:26 AM EST 7:04 PM EST
Moon 9:29 PM EST 11:16 AM EST
Length of Visible Light 10h 25m
Length of Day
9h 24m
Waning Gibbous, 84% of the Moon is Illuminated
Dec 23
Waning Gibbous
Dec 26
Last Quarter
Jan 2
New
Jan 10
First Quarter
Jan 18
Full

Hourly Weather History & Observations

Time (EST) Temp. Windchill Dew Point Humidity Pressure Visibility Wind Dir Wind Speed Gust Speed Precip Events Conditions
12:53 AM 28.9 °F 21.1 °F 24.1 °F 82% 30.17 in 9.0 mi WSW 8.1 mph - N/A   Clear
1:53 AM 28.9 °F 21.1 °F 23.0 °F 78% 30.16 in 10.0 mi WSW 8.1 mph - N/A   Clear
2:53 AM 30.0 °F 22.4 °F 21.9 °F 72% 30.17 in 10.0 mi WSW 8.1 mph - N/A   Clear
3:53 AM 30.0 °F 21.1 °F 21.0 °F 69% 30.19 in 10.0 mi West 10.4 mph - N/A   Clear
4:53 AM 30.0 °F 21.7 °F 21.0 °F 69% 30.19 in 10.0 mi WSW 9.2 mph - N/A   Clear
5:53 AM 30.0 °F 21.7 °F 21.0 °F 69% 30.20 in 10.0 mi West 9.2 mph - N/A   Clear
6:53 AM 28.9 °F 20.4 °F 21.0 °F 72% 30.20 in 10.0 mi WSW 9.2 mph - N/A   Clear
7:53 AM 28.9 °F 20.4 °F 21.0 °F 72% 30.21 in 10.0 mi West 9.2 mph - N/A   Clear
8:53 AM 28.9 °F 21.1 °F 21.0 °F 72% 30.22 in 10.0 mi West 8.1 mph - N/A   Clear
9:53 AM 32.0 °F 23.6 °F 21.9 °F 66% 30.23 in 10.0 mi WSW 10.4 mph - N/A   Clear
10:53 AM 33.1 °F 25.5 °F 19.0 °F 56% 30.22 in 10.0 mi West 9.2 mph - N/A   Clear
11:53 AM 34.0 °F 25.5 °F 19.0 °F 54% 30.21 in 10.0 mi WSW 11.5 mph - N/A   Clear
12:53 PM 34.0 °F 25.0 °F 19.9 °F 56% 30.17 in 10.0 mi West 12.7 mph - N/A   Clear
1:53 PM 35.1 °F 26.4 °F 21.0 °F 57% 30.15 in 10.0 mi WSW 12.7 mph - N/A   Clear
2:53 PM 35.1 °F 28.6 °F 21.9 °F 59% 30.13 in 10.0 mi WSW 8.1 mph - N/A   Clear
3:53 PM 34.0 °F 27.2 °F 24.1 °F 67% 30.16 in 10.0 mi WSW 8.1 mph - N/A   Clear
4:53 PM 33.1 °F 26.9 °F 24.1 °F 70% 30.16 in 10.0 mi WSW 6.9 mph - N/A   Clear
5:53 PM 32.0 °F 27.5 °F 24.1 °F 73% 30.15 in 10.0 mi WSW 4.6 mph - N/A   Clear
6:53 PM 32.0 °F 27.5 °F 24.1 °F 73% 30.14 in 10.0 mi West 4.6 mph - N/A   Clear
7:53 PM 32.0 °F 27.5 °F 24.1 °F 73% 30.16 in 10.0 mi West 4.6 mph - N/A   Clear
8:53 PM 32.0 °F 28.7 °F 23.0 °F 69% 30.16 in 10.0 mi West 3.5 mph - N/A   Overcast
9:53 PM 32.0 °F 26.4 °F 24.1 °F 73% 30.16 in 10.0 mi West 5.8 mph - N/A   Clear
10:53 PM 30.9 °F 27.5 °F 21.0 °F 67% 30.15 in 10.0 mi NW 3.5 mph - N/A   Mostly Cloudy
11:53 PM 30.9 °F 26.2 °F 21.9 °F 69% 30.14 in 10.0 mi North 4.6 mph - N/A   Overcast